This demonstration page uses our WeatherBlox Daily Observations layout. Learn more.

Left ArrowRight Arrow

41.55636, -103.73856

Hourly Observations for April 20, 2020

Temp ( °F °C ) Dew Point ( °F °C ) Humidity (%) Winds ( mph kmh ) Pressure ( in mb ) Visibility ( mi km ) Precip ( " mm )
6:58 pm 18:58 Clear 50 10.1 34 1 54 54 NNE 13 20 29.90 1013 10 16 0.00 0.00
7:58 pm 19:58 Partly Cloudy 45 7.1 33 0.5 63 63 NNE 8 13 29.93 1014 10 16 0.00 0.00
8:58 pm 20:58 Clear 40 4.4 32 -0.2 72 72 SW 6 9 29.96 1015 10 16 0.00 0.00
9:58 pm 21:58 Mostly Clear 37 2.5 31 -0.6 80 80 SW 3 6 29.97 1015 10 16 0.00 0.00
10:58 pm 22:58 Clear 38 3.4 31 -0.3 77 77 NW 3 6 29.97 1015 10 16 0.00 0.00
11:58 pm 23:58 Clear 36 2.3 31 -0.3 83 83 WSW 3 6 29.97 1015 10 16 0.00 0.00
1:58 am 01:58 Clear 32 -0.2 28 -2.5 85 85 SW 7 11 29.96 1015 10 16 0.00 0.00
2:58 am 02:58 Mostly Clear 35 1.5 30 -1 84 84 SW 6 9 29.96 1015 10 16 0.00 0.00
3:58 am 03:58 Clear 32 0.2 29 -1.7 87 87 Calm 29.96 1015 10 16 0.00 0.00
4:58 am 04:58 Clear 31 -0.8 28 -2.3 90 90 W 3 6 29.97 1015 10 16 0.00 0.00
5:58 am 05:58 Clear 29 -1.6 27 -2.7 92 92 WSW 5 7 29.99 1016 10 16 0.00 0.00
6:58 am 06:58 Sunny 28 -2 26 -3.1 92 92 WSW 5 7 30.01 1016 10 16 0.00 0.00
7:58 am 07:58 Sunny 36 2.1 32 0.1 87 87 Calm 30.01 1016 10 16 0.00 0.00
8:58 am 08:58 Sunny 47 8.2 36 2.3 67 67 WNW 7 11 30.00 1016 10 16 0.00 0.00
9:58 am 09:58 Sunny 52 11.1 34 1.3 51 51 WNW 15 24 29.99 1016 10 16 0.00 0.00
10:58 am 10:58 Sunny 57 13.8 26 -3.6 30 30 NNW 15 24 29.97 1015 10 16 0.00 0.00
11:58 am 11:58 Partly Cloudy 59 14.8 24 -4.4 26 26 NW 17 28 29.97 1015 10 16 0.00 0.00
12:58 pm 12:58 Mostly Cloudy 60 15.3 23 -4.8 25 25 NW 21 33 29.98 1015 10 16 0.00 0.00
1:58 pm 13:58 Partly Cloudy 61 16 24 -4.7 24 24 NNW 17 28 29.96 1015 10 16 0.00 0.00
2:58 pm 14:58 Mostly Cloudy 60 15.5 24 -4.5 25 25 NNW 12 19 29.95 1014 10 16 0.00 0.00
3:58 pm 15:58 Mostly Cloudy 61 16.2 24 -4.7 24 24 NNW 13 20 29.95 1014 10 16 0.00 0.00
4:58 pm 16:58 Mostly Cloudy 61 16.1 23 -4.9 23 23 N 13 20 29.95 1014 10 16 0.00 0.00
5:58 pm 17:58 Sunny 61 16.1 24 -4.5 24 24 N 10 17 29.97 1015 10 16 0.00 0.00

Powered by AerisWeather